N1DNE Weather Reports


Display with metric or nautical units.
time (UTC)temp
F
wind
direction
speed
MPH
gust
MPH
rain 1hr
in
rain 24hr
in
rain mn
in
humidity
%
barometer
mb
20260901094121 68 190 0.0 0.0 0.00 0.00 0.00 95 1014.4
20260901094048 68 190 0.0 0.0 0.00 0.00 0.00 95 1014.3
20260901092120 68 190 0.0 0.0 0.00 0.00 0.00 95 1014.4
20260901091120 68 190 0.0 0.0 0.00 0.00 0.00 95 1014.5
20260901090121 68 190 0.0 0.0 0.00 0.00 0.00 95 1014.5
20260901085119 68 190 0.0 0.0 0.00 0.00 0.00 95 1014.7
20260901084119 68 190 0.0 0.0 0.00 0.00 0.00 95 1014.8
20260901083117 68 190 0.0 0.0 0.00 0.00 0.00 95 1014.8
20260901082117 68 190 0.0 0.0 0.00 0.00 0.00 94 1014.8
20260901081117 68 190 0.0 0.0 0.00 0.00 0.00 94 1014.9
20260901080119 68 190 0.0 0.0 0.00 0.00 0.00 94 1015.0
20260901075120 68 190 0.0 0.0 0.00 0.00 0.00 94 1015.1
20260901074113 68 190 0.0 0.0 0.00 0.00 0.00 94 1015.2
20260901073551 68 190 0.0 0.0 0.00 0.00 0.00 94 1015.2
20260901072112 68 190 0.0 0.0 0.00 0.00 0.00 94 1015.3
20260901071112 68 190 0.0 0.0 0.00 0.00 0.00 94 1015.4
20260901070112 68 190 0.0 0.0 0.00 0.00 0.00 94 1015.5
20260901065111 68 190 0.0 0.0 0.00 0.00 0.00 94 1015.4
20260901064113 68 190 0.0 0.0 0.00 0.00 0.00 94 1015.4
20260901063555 68 190 0.0 0.0 0.00 0.00 0.00 94 1015.5
20260901062555 68 190 0.0 0.0 0.00 0.00 0.00 94 1015.6
20260901061552 68 190 0.0 0.0 0.00 0.00 0.00 93 1015.6
20260901060107 68 190 0.0 0.0 0.00 0.00 0.00 93 1015.7
20260901055106 68 190 0.0 0.0 0.00 0.00 0.00 93 1015.7
20260901054105 68 190 0.0 0.0 0.00 0.00 0.00 92 1016.0
20260901053107 68 190 0.0 0.0 0.00 0.00 0.00 92 1016.0
20260901052105 68 190 0.0 0.0 0.00 0.00 0.00 92 1016.0
20260901051107 69 190 0.0 0.0 0.00 0.00 0.00 92 1016.1
20260901050107 69 190 0.0 0.0 0.00 0.00 0.00 91 1016.2
20260901045106 69 190 0.0 0.0 0.00 0.00 0.00 91 1016.3
20260901044101 69 190 0.0 0.0 0.00 0.00 0.00 91 1016.3
20260901043100 69 190 0.0 0.0 0.00 0.00 0.00 90 1016.3
20260901042101 69 190 0.0 0.0 0.00 0.00 0.00 89 1016.4
20260901041100 69 190 0.0 0.0 0.00 0.00 0.00 89 1016.3
20260901040059 69 190 0.0 0.0 0.00 0.00 0.00 89 1016.5
20260901035539 69 190 0.0 0.0 0.00 0.00 0.00 89 1016.4
20260901034101 69 190 0.0 0.0 0.00 0.00 0.00 89 1016.4
20260901033057 69 190 0.0 0.0 0.00 0.00 0.00 88 1016.6
20260901032058 69 190 0.0 0.0 0.00 0.00 0.00 87 1016.5
20260901031053 69 190 0.0 0.0 0.00 0.00 0.00 87 1016.5
20260901030054 69 190 0.0 0.0 0.00 0.00 0.00 87 1016.5
20260901025053 69 190 0.0 0.0 0.00 0.00 0.00 86 1016.6
20260901024054 69 190 0.0 0.0 0.00 0.00 0.00 87 1016.7
20260901023053 69 190 0.0 0.0 0.00 0.00 0.00 86 1016.8
20260901022538 69 190 0.0 1.0 0.00 0.00 0.00 85 1016.7
20260901021054 70 190 0.0 0.0 0.00 0.00 0.00 85 1016.5
20260901020053 70 190 0.0 0.0 0.00 0.00 0.00 84 1016.6
20260901015526 70 190 0.0 0.0 0.00 0.00 0.00 84 1016.6
20260901014052 70 190 0.0 0.0 0.00 0.00 0.00 84 1016.5
20260901013053 70 190 0.0 0.0 0.00 0.00 0.00 83 1016.7
20260901012051 70 190 0.0 0.0 0.00 0.00 0.00 83 1016.8
20260901011052 70 190 0.0 0.0 0.00 0.00 0.00 82 1017.0
20260901010052 71 190 0.0 0.0 0.00 0.00 0.00 82 1016.9
20260901005051 71 190 0.0 1.0 0.00 0.00 0.00 82 1016.8
20260901004051 71 190 0.0 1.0 0.00 0.00 0.00 82 1016.8
20260901003052 71 190 0.0 2.0 0.00 0.00 0.00 82 1016.8
20260901002049 71 190 0.0 2.0 0.00 0.00 0.00 82 1016.7
20260901001050 71 190 0.0 1.0 0.00 0.00 0.00 83 1016.6
20260901000049 71 190 0.0 2.0 0.00 0.00 0.00 83 1016.6
20260831235049 71 190 0.0 1.0 0.00 0.00 0.00 82 1016.7
20260831234050 71 190 0.0 3.0 0.00 0.00 0.00 82 1016.6
20260831233050 71 190 0.0 1.0 0.00 0.00 0.00 80 1016.6
20260831232051 72 190 0.0 1.0 0.00 0.00 0.00 78 1016.8
20260831231051 72 190 0.0 1.0 0.00 0.00 0.00 78 1016.9
20260831230047 72 190 0.0 0.0 0.00 0.00 0.00 76 1017.0
20260831225048 72 190 0.0 0.0 0.00 0.00 0.00 75 1017.0
20260831224047 73 190 0.0 0.0 0.00 0.00 0.00 76 1017.1
20260831223047 73 190 0.0 0.0 0.00 0.00 0.00 74 1017.0
20260831222046 73 190 0.0 0.0 0.00 0.00 0.00 74 1017.0
20260831221049 73 190 0.0 2.0 0.00 0.00 0.00 74 1017.2
20260831220048 73 190 0.0 4.0 0.00 0.00 0.00 72 1017.1
20260831215048 74 190 0.0 3.0 0.00 0.00 0.00 71 1017.0
20260831214048 74 190 0.0 1.0 0.00 0.00 0.00 73 1017.1
20260831213044 74 190 0.0 1.0 0.00 0.00 0.00 75 1017.0
20260831212047 75 190 0.0 0.0 0.00 0.00 0.00 76 1016.9
20260831211045 75 190 0.0 3.0 0.00 0.00 0.00 76 1016.8
20260831210050 75 190 0.0 3.0 0.00 0.00 0.00 73 1016.9
20260831205046 76 190 0.0 3.0 0.00 0.00 0.00 73 1016.9
20260831204046 76 190 1.0 4.0 0.00 0.00 0.00 72 1016.9
20260831203046 76 190 1.0 4.0 0.00 0.00 0.00 72 1016.8
20260831202046 77 190 0.0 2.0 0.00 0.00 0.00 73 1016.8
20260831201520 77 190 0.0 5.0 0.00 0.00 0.00 71 1017.0
20260831200043 77 190 0.0 4.0 0.00 0.00 0.00 70 1017.0
20260831195527 78 190 2.0 5.0 0.00 0.00 0.00 68 1016.9
20260831194039 78 190 1.0 7.0 0.00 0.00 0.00 67 1017.1
20260831193040 78 194 1.0 6.0 0.00 0.00 0.00 70 1017.1
20260831192038 77 193 1.0 5.0 0.00 0.00 0.00 70 1017.3
20260831191039 76 214 1.0 5.0 0.00 0.00 0.00 70 1017.4
20260831190040 76 207 0.0 2.0 0.00 0.00 0.00 70 1017.6
20260831185039 77 207 0.0 1.0 0.00 0.00 0.00 72 1017.7
20260831184039 77 207 0.0 1.0 0.00 0.00 0.00 71 1017.7
20260831183038 77 207 0.0 1.0 0.00 0.00 0.00 68 1017.5
20260831182040 77 207 0.0 3.0 0.00 0.00 0.00 69 1017.6
20260831181511 77 46 0.0 3.0 0.00 0.00 0.00 64 1017.7
20260831180042 77 58 0.0 1.0 0.00 0.00 0.00 66 1017.8
20260831175040 77 58 0.0 2.0 0.00 0.00 0.00 64 1018.1
20260831174039 77 58 0.0 3.0 0.00 0.00 0.00 66 1018.2
20260831173034 77 72 1.0 4.0 0.00 0.00 0.00 68 1018.1
20260831172034 76 43 0.0 1.0 0.00 0.00 0.00 67 1018.2
20260831171034 76 42 1.0 3.0 0.00 0.00 0.00 68 1018.3
20260831170035 76 45 1.0 3.0 0.00 0.00 0.00 66 1018.2
20260831165033 75 44 1.0 3.0 0.00 0.00 0.00 67 1018.4
20260831164034 75 171 0.0 3.0 0.00 0.00 0.00 70 1018.7
20260831163032 74 171 1.0 4.0 0.00 0.00 0.00 70 1018.7
20260831162034 74 171 1.0 4.0 0.00 0.00 0.00 73 1018.8
20260831161035 74 55 1.0 3.0 0.00 0.00 0.00 72 1018.8
20260831160028 74 166 0.0 1.0 0.00 0.00 0.00 75 1019.0
20260831155026 73 166 1.0 5.0 0.00 0.00 0.00 75 1018.9
20260831154506 73 166 1.0 5.0 0.00 0.00 0.00 74 1019.0
20260831153506 73 71 1.0 5.0 0.00 0.00 0.00 73 1019.1
20260831152027 72 50 0.0 3.0 0.00 0.00 0.00 74 1018.9
20260831151026 72 303 0.0 2.0 0.00 0.00 0.00 75 1019.1
20260831150515 72 61 0.0 3.0 0.00 0.00 0.00 78 1019.0
20260831145026 71 67 0.0 2.0 0.00 0.00 0.00 78 1019.1
20260831144026 71 59 0.0 3.0 0.00 0.00 0.00 82 1019.1
20260831143022 71 60 0.0 2.0 0.00 0.00 0.00 82 1019.1
20260831142023 71 59 1.0 3.0 0.00 0.00 0.00 81 1019.0
20260831141020 70 60 1.0 4.0 0.00 0.00 0.00 81 1019.0
20260831140021 70 28 1.0 4.0 0.00 0.00 0.00 84 1018.9
20260831135021 70 34 1.0 4.0 0.00 0.00 0.00 85 1018.9
20260831134503 69 71 2.0 4.0 0.00 0.00 0.00 86 1018.8
20260831133502 69 40 2.0 5.0 0.00 0.00 0.00 86 1018.8
20260831132020 69 37 2.0 4.0 0.00 0.00 0.00 87 1018.9
20260831131021 68 65 1.0 4.0 0.00 0.00 0.00 88 1019.1
20260831130016 68 80 1.0 3.0 0.00 0.00 0.00 90 1018.9
20260831125014 68 81 0.0 3.0 0.00 0.00 0.00 90 1018.9
20260831124014 67 81 0.0 3.0 0.00 0.00 0.00 90 1019.0
20260831123014 67 49 1.0 3.0 0.00 0.00 0.00 92 1018.8
20260831122452 66 49 0.0 2.0 0.00 0.00 0.00 93 1018.7
20260831121424 65 49 0.0 2.0 0.00 0.00 0.00 94 1018.7
20260831121055 66 49 0.0 3.0 0.00 0.00 0.00 94 1018.7
20260831115014 65 44 1.0 3.0 0.00 0.00 0.00 94 1018.5
20260831114017 64 43 0.0 3.0 0.00 0.00 0.00 95 1018.4
20260831113008 64 51 0.0 1.0 0.00 0.00 0.00 95 1018.6
20260831112914 63 51 0.0 1.0 0.00 0.00 0.00 94 1018.4
20260831111450 63 52 0.0 0.0 0.00 0.00 0.00 94 1018.3
20260831110008 63 51 0.0 0.0 0.00 0.00 0.00 94 1018.2
20260831105008 63 52 0.0 0.0 0.00 0.00 0.00 94 1017.9
20260831104447 63 52 0.0 0.0 0.00 0.00 0.00 94 1017.9
20260831103917 63 52 0.0 0.0 0.00 0.00 0.00 94 1017.8
20260831102007 63 52 0.0 0.0 0.00 0.00 0.00 94 1017.7
20260831101008 63 51 0.0 0.0 0.00 0.00 0.00 94 1017.7
20260831100009 63 51 0.0 0.0 0.00 0.00 0.00 94 1017.7
20260831095445 64 52 0.0 1.0 0.00 0.00 0.00 94 1017.7